Hourly Data Report for July 01, 2021

POND INLET A
NUNAVUT
Current Station Operator: NAVCAN

72°41'22.000" N
77°58'08.000" W
61.60 m
2403206
71095
YIO

Download Data

Hourly Data (July 2021)
Hourly Data Report for July 1, 2021
TIME
LST
Temp Definition
°C
Dew Point Definition
°C
Rel Hum Definition
%
Precip. Amount Definition
mm

Wind Dir Definition
10's deg

Wind Spd Definition
km/h
Visibility Definition
km
Stn Press Definition
kPa
Hmdx Definition


Wind Chill Definition


Weather Definition


00:00 5.2 5.1 99 0.5 25 8 0.4 99.26     Rain, Fog
01:00 5.3 5.2 99 0.5 17 5 1.0 99.28     Rain, Fog
02:00 5.9 5.8 99 0.8 23 13 4.0 99.30     Rain, Fog
03:00 6.2 5.3 94 0.2 23 32 16.1 99.34     LegendNANA
04:00 5.9 4.9 93 0.0 22 32 16.1 99.42     LegendNANA
05:00 6.1 4.5 89 0.0 23 30 16.1 99.50     LegendNANA
06:00 4.9 2.9 87 0.0 24 32 16.1 99.56     LegendNANA
07:00 4.1 2.5 89 0.0 22 24 16.1 99.64     LegendNANA
08:00 5.1 2.4 83 0.0 23 28 16.1 99.65     LegendNANA
09:00 5.2 1.7 78 0.0 23 32 16.1 99.70     LegendNANA
10:00 5.3 1.5 77 0.0 23 30 16.1 99.72     LegendNANA
11:00 6.8 2.2 72 0.0 23 28 16.1 99.74     LegendNANA
12:00 6.4 1.3 70 0.0 24 30 16.1 99.78     LegendNANA
13:00 5.7 1.6 75 0.0 24 22 16.1 99.81     LegendNANA
14:00 6.1 0.8 69 0.0 25 21 16.1 99.81     LegendNANA
15:00 4.1 -0.2 74 0.0 24 18 16.1 99.88     LegendNANA
16:00 3.8 -0.6 73 0.0 24 22 16.1 99.92     LegendNANA
17:00 4.1 -0.8 70 0.0 23 24 16.1 99.93     LegendNANA
18:00 3.9 -1.7 67 0.0 24 28 16.1 99.91     LegendNANA
19:00 3.8 -1.8 67 0.0 23 22 16.1 99.95     LegendNANA
20:00 3.6 -1.8 68 0.0 23 22 16.1 99.95     LegendNANA
21:00 2.0 -1.0 80 0.0 23 21 16.1 99.98     LegendNANA
22:00 2.2 -0.7 81 0.0 22 13 16.1 99.99     LegendNANA
23:00 2.4 -0.6 81 0.0 21 15 16.1 100.01     LegendNANA

Notes on Data Quality.

Legend

  • E = Estimated
  • M = Missing
  • NA = Not Available*
  • [empty] = Indicates an unobserved value
Date modified: